Temp
82 96 101 95 78 79 74 80 91 91 91 98 99 96 94 96 90 78 102 107 98 91 86 83 80 80 80 80 80 79 79 79 79 79 79 79 79 79 79 79 80 80 80 80 80 80 80 80 80
87 93 94 87 73 69 75 87 87 92 93 97 97 96 94 90 98 98 98 104 98 92 85 86 79 79 80 80 80 79 79 79 79 79 79 79 79 79 79 79 80 80 80 81 81 81 80 80 80
86 95 82 79 74 69 74 87 88 92 95 94 93 99 96 89 96 97 102 103 97 93 89 85 79 79 80 80 79 79 79 79 79 79 79 79 79 79 79 79 80 80 81 81 81 80 80 80 80
92 91 86 71 70 79 81 87 90 91 93 95 96 89 98 100 97 100 103 104 104 97 93 81 79 79 79 79 79 79 79 79 79 79 79 79 79 78 78 79 79 80 80 81 80 80 79 79 79
92 86 73 71 73 78 85 90 90 87 91 92 94 89 91 99 102 103 102 103 102 101 96 83 79 79 79 79 79 79 79 79 79 79 79 79 78 78 78 78 79 80 80 80 80 79 79 79 78
79 83 68 66 73 81 85 89 88 88 90 93 92 91 93 102 100 102 103 101 106 102 93 86 80 79 78 79 79 78 78 78 79 79 79 78 78 78 78 78 78 79 79 80 80 79 78 78 78
76 73 69 71 73 78 84 91 85 85 87 88 95 87 94 96 100 103 103 102 103 104 92 86 84 81 78 78 78 78 78 78 78 78 78 78 78 78 78 78 78 78 78 78 79 78 78 77 77
82 77 69 73 72 75 87 88 90 86 84 97 96 85 86 94 100 104 105 102 103 105 93 88 84 85 82 81 78 78 78 78 78 78 78 77 78 78 78 77 77 78 78 78 78 78 77 77 76
86 70 66 70 73 77 88 86 90 92 86 89 93 93 97 99 101 100 101 101 101 103 94 91 89 86 85 85 81 78 78 78 78 78 78 76 80 79 79 79 79 78 78 78 78 77 77 77 76
77 70 69 78 81 81 86 87 89 84 82 83 88 94 98 99 97 95 96 97 96 100 99 93 89 87 87 92 82 81 82 81 80 81 79 80 80 81 84 82 79 78 78 78 77 77 77 77 77
78 71 77 80 84 86 85 86 91 84 79 83 83 88 94 94 91 91 94 96 95 97 100 94 87 86 88 90 85 84 84 83 82 82 80 79 82 81 83 82 80 77 77 78 78 76 76 78 78
74 80 81 82 85 84 82 87 85 88 88 90 89 90 90 88 88 90 90 93 94 94 93 93 91 85 85 90 88 85 85 84 83 82 81 80 80 79 81 82 80 78 79 77 77 78 78 77 78
76 79 83 85 84 84 85 82 83 85 92 94 92 90 88 86 87 88 89 89 92 89 91 90 90 86 84 84 87 86 84 86 85 83 83 82 82 79 81 81 82 81 82 80 79 79 80 79 80
80 81 81 83 83 84 80 81 82 85 91 90 91 89 88 88 87 86 87 85 87 85 86 85 87 84 85 85 85 83 84 86 86 85 84 83 82 80 81 81 80 80 82 83 83 81 79 79 79
79 73 77 78 81 78 82 75 75 85 88 86 87 89 87 88 89 87 85 85 85 85 84 85 84 84 81 81 83 83 83 87 85 85 83 83 82 81 80 80 79 80 80 82 82 81 80 78 79
71 71 64 75 78 79 78 66 78 85 84 82 85 87 88 88 89 89 86 82 82 83 81 84 86 82 79 80 80 81 82 83 84 84 84 83 82 81 81 79 79 80 80 81 80 78 76 76 76
67 59 63 68 79 78 75 68 78 84 83 81 83 85 86 86 88 88 88 82 80 80 79 80 81 82 79 78 80 80 80 80 80 81 83 83 83 82 79 80 79 80 79 80 79 77 75 75 75
60 63 66 66 75 77 73 72 78 81 81 80 81 82 83 84 84 88 88 84 82 79 79 77 78 77 79 78 77 78 79 79 79 80 81 82 83 83 80 80 79 80 78 77 76 74 76 75 75
68 65 63 69 75 72 71 70 73 78 80 79 79 79 80 81 85 88 86 83 81 80 78 77 75 74 77 77 76 75 75 78 78 78 79 80 82 81 79 80 78 78 76 75 75 74 74 74 76
67 63 62 67 73 70 69 68 72 75 76 79 79 78 79 80 82 84 84 81 78 77 78 76 76 75 74 76 77 76 78 78 76 76 77 78 80 79 78 77 77 76 76 74 74 74 73 74 77
64 61 60 61 68 71 68 63 67 73 76 79 81 82 82 80 79 80 81 80 79 77 74 74 76 73 75 77 75 76 75 76 75 77 75 77 78 78 78 77 78 77 76 76 75 74 73 72 78
57 68 67 64 60 53 67 51 63 69 71 75 77 79 80 81 82 81 80 80 77 77 79 76 75 76 73 74 75 74 72 71 76 81 78 77 78 78 79 78 78 76 78 77 77 75 74 75 73
61 69 64 63 59 58 58 53 59 68 66 71 75 78 79 81 80 80 79 78 80 79 78 79 75 75 74 71 73 73 72 73 73 74 75 75 76 77 79 77 76 76 77 77 77 75 75 73 71
70 65 62 61 56 45 55 54 55 62 67 72 76 76 78 79 79 80 80 78 78 79 77 76 75 75 77 75 72 70 71 71 70 71 71 73 76 77 78 78 75 75 76 76 74 75 74 73 73
66 57 45 42 43 41 56 49 57 67 73 75 73 75 77 78 78 77 78 78 76 76 76 75 73 73 75 75 74 73 71 71 71 70 70 71 73 75 76 75 74 75 76 75 75 75 75 73 72
56 53 47 34 38 44 56 41 55 65 75 76 77 76 77 77 78 78 79 79 80 79 77 78 75 74 75 75 73 75 73 72 71 70 71 72 72 74 75 78 78 78 78 77 78 79 78 78 77
53 46 58 47 50 45 49 49 58 66 69 73 73 73 73 75 75 77 78 78 78 79 78 78 75 75 75 75 74 73 73 73 72 71 72 73 73 77 76 75 77 79 79 79 78 78 78 79 78
50 54 40 41 30 32 45 49 50 58 59 68 70 70 72 74 75 76 77 77 78 78 77 76 76 74 73 76 75 75 74 74 73 73 72 72 73 74 75 76 77 79 79 79 79 79 79 78 78
51 47 53 51 46 36 35 44 59 58 64 63 69 72 72 73 75 75 77 78 79 79 80 77 76 76 75 73 73 74 75 75 75 74 74 74 74 75 75 76 77 78 78 79 78 78 78 77 76
60 55 51 33 36 43 40 40 64 63 65 66 69 72 74 75 75 77 77 76 77 77 78 77 76 77 76 76 75 73 74 75 73 72 73 75 74 75 76 77 78 79 81 78 77 78 80 78 75
MSLP
1008.10 1006.76 1005.60 1004.90 1004.43 1002.49 1000.82 999.17 996.87 995.64 995.55 995.64 995.93 996.17 996.50 997.39 997.56 999.87 1000.92 1000.88 1002.11 1003.84 1004.96 1005.94 1006.39 1006.71 1007.30 1008.12 1008.59 1008.97 1009.39 1009.90 1010.40 1010.69 1011.10 1011.55 1011.84 1012.32 1012.63 1012.88 1013.12 1013.30 1013.56 1013.85 1014.01 1014.28 1014.41 1014.58 1014.68
1007.85 1007.02 1005.69 1004.50 1003.29 1001.52 999.65 998.24 996.81 995.96 996.45 996.96 997.21 997.35 997.67 998.48 999.35 1000.15 1001.26 1001.59 1002.30 1003.94 1005.01 1005.78 1006.61 1006.81 1007.40 1008.15 1008.83 1009.18 1009.58 1010.02 1010.47 1010.86 1011.25 1011.69 1012.06 1012.46 1012.73 1012.94 1013.17 1013.43 1013.67 1013.86 1014.11 1014.37 1014.51 1014.76 1014.83
1007.99 1006.75 1006.05 1004.04 1002.63 1001.34 999.15 998.21 997.65 997.15 997.53 997.91 998.07 998.17 998.42 999.69 1000.47 1001.01 1001.66 1002.05 1002.77 1003.84 1005.00 1005.76 1006.69 1006.78 1007.41 1008.15 1008.85 1009.36 1009.73 1010.21 1010.51 1010.81 1011.30 1011.70 1012.14 1012.57 1012.91 1013.16 1013.37 1013.53 1013.77 1013.99 1014.15 1014.24 1014.38 1014.54 1014.78
1006.76 1005.78 1005.59 1004.30 1002.44 1001.03 999.83 998.91 998.78 998.31 998.66 999.04 998.77 998.86 999.27 1000.25 1001.07 1001.51 1001.80 1002.06 1002.01 1003.17 1004.53 1005.91 1006.68 1006.94 1007.32 1007.94 1008.84 1009.53 1010.01 1010.28 1010.52 1010.90 1011.34 1011.69 1012.22 1012.56 1012.88 1013.28 1013.47 1013.66 1013.89 1014.13 1014.23 1014.33 1014.48 1014.46 1014.57
1006.49 1005.96 1004.62 1003.53 1002.45 1001.64 1000.46 999.39 999.55 999.34 999.16 999.23 999.46 999.50 999.72 1000.52 1001.04 1001.37 1001.67 1001.81 1001.89 1002.27 1003.82 1005.72 1006.60 1007.15 1007.37 1007.79 1008.69 1009.43 1010.02 1010.49 1010.77 1011.18 1011.59 1011.95 1012.36 1012.60 1012.88 1013.36 1013.72 1013.97 1014.04 1014.17 1014.28 1014.41 1014.61 1014.82 1014.91
1006.34 1005.54 1004.57 1003.16 1002.20 1001.29 1000.81 1000.34 1000.26 1000.30 999.88 999.58 999.83 999.97 999.96 1000.30 1000.94 1001.19 1001.37 1001.60 1001.30 1001.77 1003.39 1005.22 1006.47 1007.36 1007.57 1007.87 1008.34 1009.26 1010.03 1010.50 1010.99 1011.45 1011.81 1012.13 1012.60 1012.83 1013.06 1013.42 1013.67 1013.86 1014.06 1014.27 1014.51 1014.54 1014.74 1014.91 1015.11
1006.21 1005.45 1004.11 1003.17 1002.14 1000.72 1000.04 999.96 1000.42 1000.77 1000.61 1000.24 1000.27 1000.00 1000.12 1000.64 1001.17 1001.05 1000.92 1001.55 1001.21 1001.54 1003.30 1005.07 1006.32 1007.29 1007.88 1008.35 1008.63 1009.17 1009.98 1010.53 1011.02 1011.51 1011.99 1012.29 1012.72 1012.98 1013.16 1013.45 1013.79 1014.03 1014.17 1014.37 1014.46 1014.62 1014.84 1014.89 1015.12
1005.78 1005.54 1004.27 1003.02 1002.00 1000.65 999.86 1000.05 1000.14 1000.53 1000.93 1000.89 1001.17 1000.51 1000.43 1001.28 1001.46 1001.02 1000.69 1001.21 1001.37 1001.28 1003.18 1004.88 1006.03 1007.11 1007.72 1008.43 1008.97 1009.57 1009.96 1010.54 1011.11 1011.48 1011.93 1012.33 1012.76 1013.15 1013.24 1013.39 1013.72 1013.94 1014.16 1014.23 1014.48 1014.59 1014.91 1015.09 1015.08
1005.71 1004.98 1003.19 1002.79 1001.96 1000.95 1000.07 999.49 999.92 1000.70 1001.13 1001.17 1001.36 1001.08 1000.85 1001.38 1001.58 1001.34 1000.95 1000.85 1001.25 1001.18 1002.80 1004.38 1005.81 1006.63 1007.44 1007.87 1008.95 1009.43 1010.07 1010.47 1011.01 1011.65 1012.04 1012.37 1012.65 1012.93 1013.04 1013.17 1013.33 1013.70 1013.98 1014.23 1014.41 1014.66 1014.68 1014.92 1014.85
1004.85 1003.54 1002.87 1003.02 1001.79 1000.83 1000.06 999.59 999.43 1000.40 1001.31 1001.49 1001.39 1001.43 1001.16 1001.27 1001.79 1001.86 1001.45 1001.10 1001.67 1001.38 1002.07 1003.57 1005.08 1006.17 1006.95 1007.09 1008.28 1009.13 1009.79 1010.31 1010.63 1011.11 1011.76 1012.02 1012.25 1012.39 1012.52 1012.69 1013.11 1013.43 1013.80 1014.11 1014.43 1014.56 1014.56 1014.65 1014.41
1003.83 1002.50 1002.89 1001.91 1001.39 1000.85 1000.13 999.40 999.07 999.65 1000.17 1000.83 1001.60 1001.62 1001.47 1001.85 1002.33 1002.47 1002.11 1002.09 1002.16 1001.94 1001.92 1003.08 1004.38 1005.68 1006.56 1006.66 1007.49 1008.56 1009.04 1009.75 1010.30 1010.57 1011.03 1011.62 1011.72 1011.82 1011.99 1012.21 1012.75 1013.29 1013.55 1013.74 1013.96 1014.13 1014.20 1013.89 1013.52
1002.91 1002.15 1001.85 1001.48 1001.21 1000.63 1000.03 999.74 999.13 998.98 998.85 999.71 1000.88 1001.82 1001.92 1002.36 1002.49 1002.91 1003.08 1002.61 1002.49 1002.86 1002.91 1003.09 1003.93 1005.05 1006.06 1006.61 1007.02 1007.79 1008.51 1009.01 1009.59 1010.20 1010.66 1011.04 1011.54 1011.55 1011.40 1011.71 1012.25 1012.57 1012.70 1013.08 1013.16 1013.36 1013.08 1013.06 1012.82
1002.10 1001.65 1001.31 1000.89 1000.75 1000.43 1000.39 999.85 999.56 999.04 998.84 999.41 1000.30 1001.29 1001.96 1002.31 1002.64 1003.16 1003.35 1003.33 1003.09 1003.53 1003.57 1003.52 1003.97 1004.78 1005.53 1006.12 1006.57 1007.02 1007.75 1008.30 1008.74 1009.46 1010.03 1010.61 1011.05 1011.27 1011.05 1011.22 1011.33 1011.63 1011.75 1012.18 1012.43 1012.25 1012.04 1012.05 1011.94
1002.18 1001.57 1001.04 1000.75 1000.45 1000.36 1000.47 1000.13 1000.37 999.43 999.37 999.46 999.71 1000.36 1001.29 1002.06 1002.53 1003.07 1003.50 1003.50 1003.57 1003.89 1004.36 1004.44 1004.34 1004.82 1005.61 1006.25 1006.78 1006.97 1007.26 1007.47 1008.18 1008.67 1009.28 1009.87 1010.36 1010.81 1010.90 1010.96 1011.21 1011.05 1011.12 1011.05 1011.29 1011.37 1011.27 1011.34 1011.27
1002.63 1001.99 1001.38 1001.02 1000.57 1000.66 1000.87 1000.08 999.88 1000.12 999.90 999.67 999.73 999.92 1000.69 1001.30 1001.96 1002.38 1003.04 1003.61 1003.63 1004.03 1004.49 1004.84 1004.95 1004.98 1005.43 1005.87 1006.81 1007.16 1007.09 1007.19 1007.64 1008.01 1008.50 1009.34 1009.82 1010.10 1010.48 1010.71 1011.01 1011.12 1010.75 1010.54 1010.43 1010.77 1011.06 1011.01 1011.31
1002.99 1002.49 1001.37 1000.78 1000.67 1000.47 1000.90 999.35 999.75 1000.07 1000.02 999.67 999.71 999.97 1000.07 1000.34 1001.00 1001.51 1002.39 1003.23 1003.88 1004.19 1004.72 1004.71 1005.10 1005.57 1005.73 1006.23 1006.10 1007.41 1007.07 1007.63 1007.51 1007.80 1007.96 1008.75 1009.43 1009.73 1010.12 1010.32 1010.56 1010.53 1010.40 1010.34 1010.70 1010.82 1011.16 1011.04 1010.99
1002.66 1001.70 1000.97 1000.19 999.77 999.49 999.44 998.88 999.35 999.49 999.35 999.05 999.24 999.54 999.71 1000.00 1000.56 1001.11 1001.81 1002.73 1003.69 1004.41 1004.89 1004.93 1004.65 1005.26 1005.87 1006.48 1005.95 1005.97 1007.86 1007.70 1007.60 1007.99 1007.69 1008.30 1008.79 1009.35 1009.79 1009.99 1010.13 1010.11 1010.39 1010.26 1010.47 1010.63 1011.21 1011.32 1011.17
1001.64 1000.61 999.97 999.22 998.85 998.48 998.17 998.03 998.43 998.75 998.83 998.71 998.78 999.36 999.67 999.99 1000.55 1000.97 1001.62 1002.42 1003.66 1004.59 1005.12 1005.29 1004.79 1005.03 1005.67 1006.16 1005.92 1006.17 1006.69 1007.95 1007.74 1008.06 1007.76 1007.97 1008.05 1008.62 1009.34 1009.77 1009.69 1010.00 1010.10 1010.35 1010.54 1010.87 1010.99 1011.14 1011.01
1001.61 1001.02 1000.15 999.41 998.83 998.47 997.92 998.31 998.75 998.96 998.61 998.39 998.57 999.37 999.89 1000.23 1000.91 1000.96 1001.43 1002.27 1003.65 1004.64 1005.16 1005.51 1005.33 1004.79 1005.25 1005.78 1005.98 1006.09 1006.03 1005.85 1007.47 1007.91 1007.73 1007.88 1007.71 1008.09 1008.93 1009.33 1009.49 1009.84 1010.03 1010.54 1010.70 1011.07 1011.17 1010.73 1010.81
1001.47 1000.97 1000.57 1000.15 999.78 999.32 998.79 998.38 998.90 999.09 998.52 998.04 998.16 998.88 999.48 1000.12 1000.64 1000.87 1001.67 1002.46 1003.52 1004.67 1005.20 1005.77 1005.65 1005.23 1004.86 1005.43 1005.71 1005.92 1005.93 1006.24 1007.20 1007.75 1007.68 1007.22 1007.73 1007.85 1008.25 1009.02 1008.85 1009.60 1009.51 1010.37 1010.65 1010.79 1011.03 1011.14 1010.81
1001.42 1001.42 1001.27 1000.80 1000.06 999.49 999.01 998.60 998.87 998.87 998.54 997.93 997.52 997.83 998.55 999.28 999.99 1000.74 1001.47 1002.44 1003.39 1004.37 1005.26 1005.49 1005.96 1005.89 1004.14 1005.45 1005.21 1006.08 1006.01 1005.99 1006.49 1006.52 1006.28 1006.95 1007.29 1007.93 1007.77 1007.89 1007.23 1008.78 1009.16 1009.34 1009.63 1009.88 1010.18 1009.96 1009.87
1001.51 1001.52 1001.06 1000.85 1000.59 999.83 999.39 998.42 998.29 997.83 997.28 996.93 997.12 997.44 998.09 998.79 999.09 1000.08 1001.20 1002.28 1003.39 1004.43 1004.78 1005.05 1005.13 1004.98 1005.14 1004.78 1005.59 1005.89 1006.00 1005.98 1005.88 1005.35 1005.69 1006.34 1006.39 1007.70 1006.44 1007.61 1007.07 1007.11 1007.91 1008.59 1008.17 1008.00 1008.40 1009.64 1009.85
1001.54 1001.59 1001.55 1001.40 1000.99 1000.67 1000.13 999.72 998.27 997.86 996.65 996.16 996.37 997.08 997.75 998.40 999.29 1000.19 1001.45 1002.64 1003.47 1004.25 1004.68 1004.76 1004.86 1005.13 1005.47 1005.79 1004.43 1005.35 1005.91 1006.03 1005.51 1005.51 1005.44 1006.21 1006.07 1006.35 1006.68 1006.77 1006.91 1005.86 1006.52 1006.80 1006.92 1007.09 1006.70 1008.28 1009.58
1001.91 1001.99 1002.36 1002.48 1002.29 1001.45 1000.62 1000.09 998.19 997.53 996.37 995.61 995.57 996.77 997.62 998.63 999.57 1000.51 1001.29 1002.47 1003.34 1003.97 1004.33 1004.53 1004.99 1004.83 1004.81 1005.10 1005.23 1004.26 1006.05 1005.80 1005.77 1005.48 1005.79 1005.77 1005.62 1005.74 1006.26 1005.93 1005.83 1005.47 1006.28 1006.08 1006.54 1006.96 1006.73 1007.07 1008.77
1002.25 1002.75 1002.79 1002.71 1002.43 1001.91 1001.29 1000.72 998.27 996.79 995.47 994.83 995.28 996.71 997.77 998.88 999.81 1000.49 1001.26 1001.81 1002.45 1003.16 1003.63 1003.93 1004.28 1004.52 1004.72 1005.04 1005.29 1005.08 1004.72 1005.37 1005.52 1005.74 1005.62 1005.74 1005.18 1005.29 1005.52 1004.77 1005.31 1005.05 1005.26 1005.44 1005.83 1005.92 1005.54 1006.29 1007.64
1003.25 1004.05 1003.05 1002.68 1002.39 1001.65 1000.98 1001.37 998.65 997.38 996.08 995.84 995.71 996.67 997.83 998.79 999.63 1000.09 1000.71 1001.18 1001.73 1002.35 1002.85 1003.27 1003.85 1004.09 1004.41 1004.52 1004.57 1004.27 1004.19 1004.30 1004.52 1005.27 1005.02 1004.92 1004.56 1004.54 1004.22 1004.49 1004.61 1004.41 1004.38 1004.35 1004.55 1004.62 1004.64 1005.43 1005.93
1004.43 1004.93 1004.43 1003.74 1003.44 1002.32 1001.38 1001.15 999.88 998.34 996.98 996.32 996.87 997.59 998.16 998.90 999.68 1000.23 1000.81 1001.36 1001.69 1002.13 1002.61 1003.10 1003.63 1003.90 1003.87 1003.94 1004.18 1004.14 1004.07 1004.42 1004.68 1004.90 1004.72 1004.27 1004.11 1004.00 1004.20 1003.53 1003.56 1003.44 1003.35 1003.53 1003.61 1003.65 1003.71 1004.25 1004.69
1005.61 1005.72 1006.05 1006.25 1005.21 1003.39 1001.39 1000.01 999.11 998.55 999.01 997.39 997.13 997.92 998.49 999.14 999.79 1000.35 1000.85 1001.09 1001.35 1001.77 1002.16 1002.67 1003.07 1003.35 1003.61 1003.73 1003.73 1003.56 1003.67 1003.78 1004.11 1003.94 1003.82 1003.79 1003.89 1003.96 1003.73 1003.38 1003.38 1002.51 1002.67 1002.81 1002.96 1003.00 1003.10 1003.52 1003.73
1005.12 1005.95 1005.24 1004.76 1004.49 1003.98 1002.59 1000.81 999.76 999.47 998.06 998.30 997.72 998.15 998.67 999.24 999.59 1000.13 1000.30 1000.55 1000.80 1001.04 1001.31 1001.75 1002.20 1002.50 1002.75 1002.93 1003.23 1003.37 1003.38 1003.45 1003.43 1003.53 1003.25 1003.31 1003.45 1003.23 1003.12 1003.20 1002.64 1002.33 1002.09 1002.07 1002.40 1002.37 1002.50 1002.75 1003.35
1004.27 1004.69 1005.33 1006.66 1005.77 1004.55 1003.85 1001.79 1000.27 1000.03 999.39 998.87 998.48 998.52 998.76 999.00 999.31 999.29 999.78 1000.23 1000.66 1000.80 1000.99 1001.27 1001.65 1002.00 1002.26 1002.34 1002.60 1002.82 1003.02 1002.99 1003.10 1003.12 1003.11 1003.08 1003.05 1002.92 1002.60 1002.23 1002.03 1001.66 1001.33 1001.49 1001.75 1001.64 1001.73 1002.16 1002.84
Wind_Speed
16 17 8 8 7 8 14 19 23 5 7 5 13 11 5 14 14 8 14 9 23 19 16 16 16 18 18 14 14 15 15 15 15 14 14 13 13 12 12 12 11 11 10 8 8 7 6 5 5
10 15 9 7 9 12 12 19 22 2 15 13 10 6 9 8 17 12 14 10 23 19 15 15 14 18 18 15 12 14 15 15 15 14 14 13 13 12 12 12 11 10 9 8 7 6 6 4 4
12 15 5 5 11 14 17 15 13 16 11 5 3 3 6 11 15 6 11 8 22 17 15 14 14 18 18 17 13 12 14 14 15 15 14 14 13 12 11 11 10 10 9 8 7 7 6 6 4
12 8 7 9 16 18 22 19 7 10 4 4 5 2 5 14 6 8 7 3 4 20 17 19 16 17 19 19 15 12 12 14 15 14 14 14 13 13 12 10 9 9 8 8 7 6 5 6 5
9 8 12 17 18 20 20 20 5 11 6 4 6 11 6 9 9 8 7 5 8 17 18 18 17 15 18 19 17 13 12 11 12 12 12 12 12 12 11 10 8 7 7 7 7 6 4 3 3
10 11 15 16 20 19 15 11 5 12 19 10 8 6 6 12 12 8 7 8 9 14 19 17 19 13 16 17 18 15 12 11 11 10 11 11 10 10 10 10 9 8 7 7 6 6 4 4 4
14 13 19 22 21 23 20 16 7 10 16 13 16 17 3 16 9 7 4 1 10 15 19 15 15 13 12 12 15 16 13 12 12 11 10 10 10 9 10 9 8 7 7 6 7 6 6 6 6
14 13 24 21 19 23 21 12 12 8 11 13 5 7 3 9 8 10 8 5 7 14 20 16 14 14 12 11 12 13 14 13 12 11 10 10 10 9 9 9 7 7 7 7 7 7 6 7 6
20 16 17 25 25 22 20 18 15 12 10 11 8 15 5 7 8 10 6 5 4 10 19 16 16 14 12 12 11 14 15 15 14 11 10 9 6 8 10 10 11 11 9 8 7 6 7 8 9
20 17 25 23 23 21 23 22 17 17 12 11 13 20 13 3 5 9 11 4 2 8 18 18 16 14 13 11 13 10 10 8 8 9 10 6 7 7 10 11 12 13 10 8 7 7 7 8 6
22 24 22 24 22 23 26 26 21 17 18 16 16 16 16 5 9 12 10 7 6 8 5 18 15 14 12 10 10 6 6 6 7 9 8 8 6 5 6 4 6 5 9 5 8 7 6 9 7
25 26 26 23 24 25 24 23 25 25 16 19 21 16 15 14 2 7 13 13 6 3 7 12 15 14 12 7 9 10 8 8 7 9 9 6 5 5 4 4 7 8 6 8 6 6 9 11 10
24 25 24 24 25 23 23 26 25 25 23 11 16 15 13 10 3 1 4 9 4 4 6 10 12 11 10 6 5 9 9 8 9 9 10 7 7 5 5 4 5 7 7 9 8 8 8 10 11
20 21 25 22 24 21 23 21 24 25 22 19 17 16 11 12 12 6 3 4 6 6 5 8 2 9 7 2 3 2 6 8 8 7 10 11 7 6 5 5 3 4 4 6 9 8 7 6 5
18 21 19 22 19 21 22 28 26 25 23 21 22 17 16 16 15 16 8 3 5 5 4 3 5 6 7 8 2 0 3 1 5 6 9 13 9 7 6 5 5 5 5 7 4 3 2 3 2
17 17 19 21 23 23 23 24 24 23 21 23 23 19 19 15 17 13 11 9 7 4 3 0 0 5 7 6 5 3 1 3 2 3 4 11 10 6 5 5 5 6 5 4 3 3 4 4 5
15 17 21 24 24 21 24 27 22 21 20 20 22 17 23 11 13 12 14 12 8 6 5 3 5 2 8 6 7 5 5 3 2 4 3 7 11 12 7 5 5 5 4 3 4 4 4 3 3
18 19 21 22 19 20 26 23 17 16 19 20 14 13 12 9 11 11 10 13 9 7 3 4 3 5 3 7 5 6 6 5 5 6 4 7 9 11 10 7 5 5 3 3 1 4 2 3 5
21 21 25 21 20 17 14 17 18 19 22 19 12 12 12 12 12 11 11 12 8 5 4 5 3 7 3 4 7 5 5 4 5 4 7 7 5 7 7 8 6 4 4 4 4 3 6 6 7
21 19 20 20 21 19 19 17 14 18 21 19 17 18 16 14 12 10 6 8 9 6 2 2 5 3 5 4 1 3 5 7 8 8 9 5 5 8 9 10 6 7 5 4 6 6 5 5 7
18 18 19 22 21 21 21 20 17 20 21 21 19 14 14 14 16 13 13 8 7 6 7 6 4 5 7 2 3 1 2 1 4 4 3 9 11 11 13 13 11 8 7 7 8 8 9 9 6
20 20 21 20 18 16 17 15 19 22 25 25 21 16 13 17 13 10 6 3 7 5 6 6 4 1 5 5 4 6 4 5 6 12 3 5 12 16 9 12 11 12 8 10 11 11 11 8 9
21 19 15 20 17 16 20 15 17 20 20 13 13 12 11 7 7 9 8 6 6 4 4 3 6 5 5 6 7 2 4 3 3 3 9 8 6 10 13 12 16 12 12 15 13 13 11 7 3
17 14 14 17 14 15 22 18 18 18 21 19 18 15 12 11 7 5 11 11 6 8 6 3 3 3 3 4 4 7 6 5 3 3 3 3 4 6 13 15 9 8 10 13 11 10 7 8 7
18 15 13 14 13 16 23 11 19 20 20 13 18 14 13 9 8 13 11 12 14 10 9 8 7 5 4 5 6 7 8 8 6 5 4 6 4 4 11 9 10 11 14 14 12 11 7 8 13
17 18 14 18 13 15 9 7 11 24 10 1 12 17 14 12 10 7 9 3 3 6 8 5 5 6 5 4 6 4 4 2 2 6 7 6 5 5 6 8 14 15 15 14 12 10 9 11 14
10 16 19 15 17 15 16 12 15 21 18 12 10 4 4 4 7 3 1 5 4 3 1 2 5 4 5 6 6 4 4 6 6 8 6 5 6 6 9 8 8 13 12 12 12 10 12 11 11
8 9 9 6 3 14 13 16 11 3 12 19 12 9 9 10 9 6 8 7 5 6 5 7 7 9 9 4 5 5 7 7 9 8 7 6 7 9 10 12 10 8 11 10 11 11 13 12 10
10 16 22 11 9 7 10 12 5 4 4 18 10 10 10 11 5 10 8 7 6 6 8 6 7 7 7 8 6 5 5 5 5 5 5 6 8 9 10 13 12 12 10 10 13 14 13 13 12
19 17 3 4 9 8 9 12 13 3 4 6 6 4 4 6 12 10 7 7 8 7 7 5 5 4 7 6 6 6 5 5 5 6 7 7 9 9 11 13 14 13 13 14 14 15 14 13 13
Wind_Direction
295 300 278 272 241 227 246 251 264 295 351 347 21 0 263 11 51 61 49 41 113 128 143 151 143 138 140 148 149 146 143 143 146 140 133 134 133 134 131 127 126 127 128 126 124 124 113 110 105
303 300 289 274 239 253 238 236 260 39 80 37 12 341 327 72 44 72 67 19 116 133 142 152 152 141 140 142 150 149 147 147 147 142 139 141 137 141 139 139 139 135 138 138 136 131 123 120 111
270 272 289 253 238 248 261 5 359 68 73 76 345 226 306 66 54 31 29 344 123 135 148 149 158 144 143 140 145 154 151 153 150 147 147 145 147 145 141 142 141 146 149 151 152 149 145 141 130
286 260 234 254 259 243 256 285 339 338 58 6 284 357 97 63 51 24 8 296 194 143 155 145 157 153 148 145 148 151 157 156 154 152 153 149 152 147 145 148 150 155 157 162 166 160 162 156 155
259 265 262 252 241 261 286 298 40 300 301 112 215 245 132 103 57 10 25 302 222 150 156 154 154 161 150 148 148 152 153 156 152 152 153 149 153 151 148 148 150 160 165 173 170 168 175 177 185
262 244 252 254 253 243 251 295 321 283 287 279 269 282 275 112 55 358 44 307 210 158 137 150 152 163 156 154 150 149 148 147 145 146 150 149 152 151 149 151 160 171 174 180 180 173 186 210 227
246 258 250 253 260 267 222 229 215 241 272 272 305 247 116 56 32 334 101 85 280 150 132 143 159 159 154 154 149 146 141 138 135 137 142 146 152 154 153 156 170 178 177 191 189 182 200 213 231
251 246 257 261 264 255 265 174 210 191 251 248 295 292 32 54 358 324 16 71 237 161 131 141 159 170 173 158 147 141 138 135 135 140 146 146 150 157 159 163 181 189 197 200 203 193 209 227 233
237 247 251 250 252 263 270 260 175 184 211 273 227 269 282 55 352 333 353 101 235 183 135 142 162 166 185 165 158 142 146 140 139 145 151 149 188 179 177 193 188 193 200 212 212 212 211 229 235
231 241 241 253 266 266 263 260 251 171 201 237 228 250 289 231 359 334 324 0 163 218 156 143 159 168 183 178 156 171 168 173 174 176 170 193 208 187 202 193 195 190 196 208 219 224 224 235 247
233 241 246 249 253 261 271 276 270 184 201 203 237 249 246 329 351 334 327 23 341 292 186 144 155 159 185 198 148 170 178 184 187 189 178 187 203 221 194 191 175 182 195 204 204 212 223 235 230
245 241 249 253 265 273 277 278 270 273 247 177 199 224 262 303 135 340 343 322 96 322 311 137 152 157 176 199 161 164 184 179 181 190 187 180 210 205 206 183 187 189 185 198 224 204 218 218 232
245 252 256 253 251 264 275 275 281 279 271 243 175 199 223 260 249 207 356 345 69 44 357 318 152 153 169 210 169 168 182 176 183 176 189 193 188 230 196 210 204 171 194 185 204 219 209 213 219
266 256 259 256 262 268 262 260 272 266 272 267 262 215 194 243 247 201 214 15 44 68 357 2 72 121 109 16 355 9 178 176 178 180 186 185 202 191 228 185 235 250 223 194 202 211 216 210 209
270 274 275 264 255 261 257 258 243 260 266 266 267 259 204 214 247 219 177 162 101 102 26 5 334 150 150 173 180 175 308 130 180 175 172 186 195 204 192 186 199 238 230 246 248 290 265 250 266
269 263 260 251 254 246 248 259 245 245 251 255 256 258 264 217 231 222 161 148 118 99 132 48 245 331 155 182 144 195 324 258 202 208 166 176 191 205 215 199 208 223 224 208 207 225 260 261 219
242 255 252 253 243 244 232 244 248 254 260 248 239 258 239 236 254 238 169 136 128 123 143 217 133 102 177 206 169 134 225 259 289 249 203 182 184 201 210 205 220 242 236 209 188 209 244 276 237
262 248 237 244 251 252 238 245 240 254 253 253 234 253 269 252 262 258 176 128 123 118 142 176 151 104 183 181 178 175 173 214 194 245 238 219 195 189 196 226 205 225 212 229 237 248 247 258 243
264 269 284 292 296 306 243 235 250 251 255 258 224 227 242 238 239 254 167 129 122 155 156 246 180 134 131 168 185 195 185 157 260 252 239 254 191 182 193 208 214 200 204 238 227 250 237 244 246
279 281 282 288 279 280 277 263 258 263 269 267 220 218 221 233 227 239 162 134 136 159 145 292 305 230 134 163 179 233 190 180 196 220 211 218 264 200 187 206 190 217 191 224 226 211 253 284 247
268 266 273 277 280 268 254 259 258 267 264 265 257 229 227 221 211 215 220 161 151 160 173 209 199 275 126 237 96 332 328 336 199 199 174 211 227 231 208 200 173 205 187 209 203 201 209 239 254
272 273 262 260 262 267 273 268 252 250 230 238 237 241 238 231 226 191 176 219 134 227 193 172 167 105 312 165 228 202 193 203 242 240 199 222 195 222 215 222 186 186 202 219 210 198 211 219 243
275 268 296 302 288 284 256 264 268 277 276 249 214 225 233 229 196 197 171 201 209 197 230 195 150 195 178 266 149 104 285 253 222 243 181 245 213 216 224 212 209 193 192 221 217 227 193 187 213
263 279 282 285 284 268 263 259 266 265 260 254 202 194 196 195 164 210 176 177 174 207 214 153 256 233 188 224 243 146 232 272 301 299 333 260 249 210 221 211 212 195 212 219 227 250 180 166 219
247 252 255 247 242 258 261 317 280 258 237 291 148 165 159 175 209 173 191 191 185 197 187 187 187 200 210 223 235 219 190 197 206 262 259 262 272 232 233 221 215 208 219 226 230 231 208 196 215
274 296 243 255 257 258 242 259 255 328 196 168 163 166 177 180 205 174 213 176 203 193 189 183 185 180 210 242 261 242 272 282 230 234 240 244 236 258 261 211 223 220 219 220 222 232 226 220 221
264 251 278 278 287 278 269 241 280 278 301 184 174 163 175 176 201 143 184 230 212 228 250 200 171 286 265 213 205 228 230 220 229 252 271 276 285 287 269 267 235 218 224 220 220 227 234 232 224
198 277 290 215 234 247 260 248 235 270 266 276 183 199 201 184 188 196 239 252 247 224 195 191 210 217 224 257 276 234 219 222 228 235 238 251 270 273 282 290 287 223 218 228 221 227 229 228 218
211 221 249 302 235 259 285 285 59 328 174 231 212 201 185 210 196 227 255 279 278 244 229 222 206 228 222 201 218 247 271 262 265 262 260 258 254 257 255 260 269 270 231 228 230 232 225 219 215
303 277 295 173 299 291 258 255 287 205 225 332 262 250 228 226 234 232 217 238 275 273 280 266 240 258 278 235 221 228 232 255 270 273 264 257 265 256 260 256 256 250 243 223 233 234 223 214 204